Ask Your Question

ehansen's profile - karma

ehansen's karma change log

0 -15 Crop Pictures in Writer ( 2017-06-25 21:38:04 +0100 )

10 0 Why can't we upvote? ( 2017-02-21 21:17:54 +0100 )

10 0 How can I remove these annoying hovering labels in Writer? ( 2017-02-21 21:17:25 +0100 )

10 0 Crop Pictures in Writer ( 2017-02-08 18:05:51 +0100 )

0 10 Crop Pictures in Writer ( 2017-02-05 20:25:28 +0100 )

10 0 What's the best way to batch convert ODF to PDF on Windows? ( 2016-06-19 09:00:53 +0100 )

10 0 What's the best way to batch convert ODF to PDF on Windows? ( 2016-04-30 01:22:10 +0100 )

15 0 Document Management ( 2015-10-26 12:25:56 +0100 )

10 0 Which MS Office file formats have better compatibility with LibreOffice? ( 2014-02-10 20:36:59 +0100 )

0 -10 Which MS Office file formats have better compatibility with LibreOffice? ( 2014-02-10 20:36:58 +0100 )

10 0 Which MS Office file formats have better compatibility with LibreOffice? ( 2014-02-10 20:36:57 +0100 )

10 0 How can I remove these annoying hovering labels in Writer? ( 2014-01-08 00:05:20 +0100 )

10 0 How can I remove these annoying hovering labels in Writer? ( 2013-06-08 22:23:53 +0100 )

10 0 Easier to apply background in Impress ( 2013-05-15 23:12:45 +0100 )

15 0 How to use sublevel numbering? ( 2013-02-16 02:28:38 +0100 )

10 0 How to use sublevel numbering? ( 2013-02-06 07:22:53 +0100 )

10 0 Mail merge without .ODB file ( 2013-01-26 08:13:50 +0100 )

15 0 Migrating from Open Office Calc ( 2013-01-23 09:52:26 +0100 )

15 0 libreplan and libreoffice ( 2013-01-23 09:51:56 +0100 )

15 0 Easier to apply background in Impress ( 2013-01-23 09:41:11 +0100 )

10 0 Easier to apply background in Impress ( 2013-01-23 09:41:08 +0100 )

15 0 is there something like quickbooks in libre office? ( 2013-01-23 09:33:25 +0100 )

15 0 Is it possible to open a document created in libreoffice in Word ( 2013-01-23 08:26:07 +0100 )

10 0 Is it possible to open a document created in libreoffice in Word ( 2013-01-23 08:25:59 +0100 )

15 0 How to record narration in Impress? ( 2013-01-22 10:07:44 +0100 )

15 0 html export reletive path ( 2013-01-20 07:51:02 +0100 )

15 0 How can I re-assign the default application for Writer documents to be Microsoft Word? ( 2013-01-20 07:35:54 +0100 )

10 0 What's the best way to batch convert ODF to PDF on Windows? ( 2013-01-10 22:21:50 +0100 )

2 0 Compatibility regressions and confidential documents ( 2012-11-16 08:17:17 +0100 )

10 0 Is it possible to open a document created in libreoffice in Word ( 2012-11-07 20:42:49 +0100 )

15 0 Setting up the original template document ( 2012-07-30 01:59:52 +0100 )

10 0 is there something like quickbooks in libre office? ( 2012-06-26 06:34:00 +0100 )

15 0 Is it possible setup automatic update? ( 2012-03-30 15:12:02 +0100 )

10 0 Is it possible setup automatic update? ( 2012-03-30 15:12:01 +0100 )

10 0 Migrating from Open Office Calc ( 2012-03-21 16:01:23 +0100 )

10 0 libreplan and libreoffice ( 2012-03-21 16:00:57 +0100 )

10 0 Easier to apply background in Impress ( 2012-03-18 18:01:10 +0100 )

15 0 How can I remove these annoying hovering labels in Writer? ( 2012-03-17 00:50:34 +0100 )

10 0 How to record narration in Impress? ( 2012-03-16 19:36:26 +0100 )

15 0 Crop Pictures in Writer ( 2012-03-16 16:53:19 +0100 )

10 0 Why can't we upvote? ( 2012-03-10 14:12:14 +0100 )

0 -10 Why can't we upvote? ( 2012-03-10 14:12:07 +0100 )

10 0 Why can't we upvote? ( 2012-03-10 14:11:56 +0100 )

15 0 Why can't we upvote? ( 2012-03-10 10:44:33 +0100 )

10 0 How can I remove these annoying hovering labels in Writer? ( 2012-03-02 18:47:27 +0100 )

10 0 How can I re-assign the default application for Writer documents to be Microsoft Word? ( 2012-03-02 18:29:46 +0100 )

10 0 How can I re-assign the default application for Writer documents to be Microsoft Word? ( 2012-03-02 17:31:51 +0100 )

10 0 How can I re-assign the default application for Writer documents to be Microsoft Word? ( 2012-03-02 17:06:05 +0100 )

15 0 Why did you change save button? ( 2012-02-21 10:03:10 +0100 )